Location: Azul
(36.7830°S, 59.8500°W)
Time: 03:31:29
(UTC-03:00)

ISS - Pass Details

Date: 01 December 2020
Orbit: 418 x 420 km, 51.6° (Epoch: 04 December)

Event Time Altitude Azimuth Distance (km) Brightness Sun altitude
Exits shadow 04:50:37 - 253° (WSW) 2,374 -0.3 -8.2°
Reaches altitude 10° 04:54:09 10° 214° (SW) 1,531 -0.9 -7.6°
Maximum altitude 04:55:06 11° 198° (SSW) 1,481 -0.8 -7.5°
Drops below altitude 10° 04:56:03 10° 182° (S) 1,534 -0.4 -7.3°
Sets 04:59:39 0° 143° (SE) 2,405 1.7 -6.7°
